Location: Newark
(45.5000°N, 11.4167°E)
Time: 00:56:36
(UTC+00:00)

Vanguard 2 - Pass Details

Date: 22 August 2019
Orbit: 554 x 2937 km, 32.9° (Epoch: 19 September)

Event Time Altitude Azimuth Distance (km) Brightness Sun altitude
Rises 11:31:05 0° 214° (SW) 3,311 11.2 56.2°
Reaches altitude 10° 11:33:47 10° 198° (SSW) 2,635 11.0 56.1°
Maximum altitude 11:38:31 22° 149° (SSE) 2,365 10.8 56.0°
Drops below altitude 10° 11:45:04 10° 105° (ESE) 3,807 11.2 55.8°
Sets 11:50:00 0° 93° (E) 5,283 11.7 55.6°
